Погода в Октябрьском

Россия / Ульяновская область     52°44′49″N   47°08′00″E
темп.,
°C
ветер,
м/с
пор.,
м/с
влажн.,
%
обл.,
%
осадки,
мм/ч
давл.,
гПа
погр.,
м
18 октября, пн
пн1801:00+8юз1185100 0.0 101515
04:00+8ююв1185100 0.0 101425
07:00+8ю1187100 0.1 101317
10:00+8ю1286100 0.3 101392
13:00+11юз347095 0.0 1011526
16:00+12юз456122 0.0 1010929
19:00+10зсз5861100 0.0 1011489
22:00+7сз5961100 0.0 1012408
19 октября, вт
вт1901:00+6зсз3863100 0.0 1012220
04:00+5зсз2567100 0.0 1012205
07:00+4сз2379100 0.0 101285
10:00+6сз2372100 0.0 1013460
13:00+8сз3360100 0.1 10121122
16:00+8сз2349100 0.2 10111323
19:00+6ссз2453100 0.0 101296
22:00+5ссз4864100 0.0 1012348
20 октября, ср
ср2001:00+3с4769100 0.0 1013433
04:00+2ссз4784100 0.0 1013403
07:00+1ссз5981100 0.0 1015623
10:00+2с797010 0.0 1016823
13:00+4с7853100 0.1 10161587
16:00+5ссз7105287 0.1 10171585
19:00+1ссз38707 0.0 1020220
22:000сз510775 0.0 1021339
21 октября, чт
чт2101:00−1сз410865 0.0 1022263
04:00−3зсз36885 0.0 1022114
07:00−3з23885 0.0 102238
10:00+1юз5870100 0.0 1020395
13:00+5юз71148100 0.0 1017814
16:00+3юз71572100 0.0 1015739
19:00+3юз71585100 0.2 1013606
22:00+5юз81776100 1.1 1011556
22 октября, пт
пт2201:00+7зюз71779100 0.0 1010569
04:00+8зюз71777100 0.0 1008490
07:00+8зюз71676100 0.0 1008510
10:00+9зюз81768100 0.0 1007618
13:00+12зюз91657100 0.0 1007777
16:00+13зюз9156096 0.0 1007875
19:00+11зюз8167298 0.0 1009703
22:00+10з7168199 0.0 1011605